"startDT [UTC]","vpos","CH4 [ppm]","stdev(CH4) [ppm]","CO2 [ppm]","stdev(CO2) [ppm]","H2O [ppm]","stdev(H2O)","p_LGR [torr]","T_LGR [C]","mt1_LGR [us]","mt2_LGR [us]","T_ECpre [C]","T_EC1 [C]","T_EC2 [C]","p_inlet [hPa]","p_in [hPa]","p_out [hPa]","T_inlet [C]","RH_inlet [%]","dwpt_inlet [C]","T_vent [C]","RH_vent [%]","dwpt_vent [C]","flow_vent [l min-1]","flow_inlet [l min-1]","dwpt_sample [C]","T_room [C]"
2012-09-28 00:00:00,0.0,1.9060,0.0010,403.49,0.45,546.9,27.6,138.04,31.85,24.65,36.39,0.04,-272.74,-272.74,-44,576,-923,25.8,23.4,3.4,26.2,23.6,3.8,5.73,2.36,-19.3,31.4
2012-09-28 00:01:00,0.0,1.9061,0.0009,403.73,0.36,539.5,30.2,138.04,31.85,24.65,36.38,0.04,-272.74,-272.74,-44,576,-923,25.8,23.4,3.3,26.2,23.7,3.8,5.73,2.30,-19.3,31.4
2012-09-28 00:02:00,0.0,1.9042,0.0014,403.79,0.44,534.6,30.5,138.04,31.85,24.65,36.39,0.04,-272.74,-272.74,-44,576,-923,25.8,23.5,3.4,26.2,23.7,3.8,5.73,2.25,-19.3,31.4
2012-09-28 00:03:00,0.0,1.9027,0.0012,404.23,0.39,538.0,29.5,138.04,31.85,24.65,36.39,0.04,-272.74,-272.74,-44,576,-923,25.8,23.5,3.4,26.1,23.8,3.8,5.73,2.37,-19.3,31.4
2012-09-28 00:04:00,0.0,1.9032,0.0012,404.32,0.50,538.3,33.4,138.04,31.85,24.65,36.39,0.04,-272.74,-272.74,-44,576,-923,25.8,23.5,3.4,26.1,23.8,3.8,5.73,2.27,-19.3,31.4
2012-09-28 00:05:00,0.0,1.9014,0.0017,404.94,0.55,537.4,30.9,138.04,31.85,24.65,36.38,0.04,-272.74,-272.74,-44,576,-923,25.8,23.6,3.4,26.1,23.9,3.9,5.73,2.28,-19.3,31.4
2012-09-28 00:06:00,0.0,1.9002,0.0012,405.24,0.40,550.1,34.5,138.04,31.85,24.65,36.38,0.04,-272.75,-272.75,-44,576,-923,25.8,23.7,3.5,26.1,23.9,3.9,5.73,2.37,-19.3,31.4
2012-09-28 00:07:00,0.0,1.9005,0.0009,405.10,0.37,535.4,32.6,138.04,31.85,24.65,36.38,0.04,-272.74,-272.74,-44,576,-923,25.8,23.7,3.5,26.1,24.0,3.9,5.73,2.25,-19.3,31.4
2012-09-28 00:08:00,0.0,1.9008,0.0010,405.04,0.37,536.2,30.5,138.04,31.85,24.65,36.39,0.04,-272.74,-272.74,-44,576,-923,25.8,23.8,3.5,26.1,24.0,4.0,5.73,2.30,-19.3,31.4
2012-09-28 00:09:00,0.0,1.9016,0.0010,405.21,0.42,534.6,33.0,138.04,31.85,24.65,36.38,0.04,-272.74,-272.74,-44,576,-923,25.8,23.8,3.6,26.1,24.1,4.0,5.73,2.36,-19.3,31.4
2012-09-28 00:10:00,0.0,1.9009,0.0011,405.62,0.39,542.3,29.4,138.04,31.85,24.65,36.39,0.04,-272.74,-272.74,-44,576,-923,25.7,23.8,3.5,26.1,24.1,4.0,5.73,2.24,-19.3,31.4
2012-09-28 00:11:00,0.0,1.9027,0.0011,405.46,0.45,536.9,28.0,138.04,31.85,24.65,36.38,0.04,-272.74,-272.74,-44,576,-923,25.8,23.8,3.6,26.1,24.1,4.0,5.73,2.32,-19.3,31.4
2012-09-28 00:12:00,0.0,1.9041,0.0013,405.78,0.44,535.1,27.6,138.04,31.85,24.65,36.39,0.04,-272.74,-272.74,-44,576,-923,25.8,23.9,3.6,26.1,24.1,4.0,5.73,2.34,-19.3,31.4
2012-09-28 00:13:00,0.0,1.9053,0.0021,406.31,0.39,543.7,28.1,138.04,31.85,24.65,36.38,0.04,-272.74,-272.74,-44,576,-923,25.7,23.9,3.6,26.1,24.1,4.0,5.73,2.24,-19.3,31.4
2012-09-28 00:14:00,0.0,1.9037,0.0013,405.87,0.40,532.1,31.6,138.04,31.84,24.65,36.38,0.04,-272.74,-272.74,-44,576,-923,25.7,23.9,3.6,26.1,24.2,4.1,5.73,2.35,-19.3,31.3
2012-09-28 00:15:00,0.0,1.9041,0.0012,405.79,0.39,532.9,34.7,138.04,31.84,24.65,36.38,0.04,-272.74,-272.74,-44,576,-923,25.7,23.9,3.6,26.1,24.2,4.1,5.73,2.31,-19.3,31.3
2012-09-28 00:16:00,0.0,1.9015,0.0014,405.99,0.45,534.2,30.0,138.04,31.84,24.65,36.38,0.04,-272.74,-272.74,-44,576,-923,25.7,23.9,3.6,26.1,24.2,4.1,5.73,2.25,-19.3,31.4
2012-09-28 00:17:00,0.0,1.8996,0.0013,406.06,0.39,533.5,34.2,138.04,31.84,24.66,36.38,0.04,-272.75,-272.74,-44,576,-923,25.8,23.9,3.6,26.1,24.2,4.1,5.73,2.37,-19.3,31.3
2012-09-28 00:18:00,0.0,1.8978,0.0013,406.28,0.37,543.0,35.2,138.04,31.84,24.65,36.38,0.04,-272.74,-272.74,-44,576,-923,25.8,23.9,3.6,26.1,24.2,4.1,5.73,2.27,-19.3,31.3
2012-09-28 00:19:00,0.0,1.8989,0.0015,406.24,0.40,535.5,33.8,138.04,31.84,24.65,36.39,0.04,-272.74,-272.75,-44,576,-923,25.8,23.9,3.6,26.1,24.2,4.1,5.73,2.28,-19.3,31.2
2012-09-28 00:20:00,0.0,1.9000,0.0010,406.40,0.42,539.7,36.6,138.04,31.84,24.65,36.38,0.04,-272.74,-272.75,-44,576,-923,25.8,23.9,3.6,26.1,24.2,4.1,5.73,2.37,-19.3,31.3
2012-09-28 00:21:00,0.0,1.9008,0.0011,406.37,0.44,541.7,28.2,138.04,31.84,24.65,36.39,0.04,-272.74,-272.74,-44,576,-923,25.8,23.9,3.6,26.1,24.2,4.1,5.73,2.25,-19.3,31.3
2012-09-28 00:22:00,0.0,1.9018,0.0011,406.47,0.42,538.4,32.9,138.04,31.84,24.65,36.38,0.04,-272.74,-272.74,-44,576,-923,25.8,23.9,3.6,26.1,24.2,4.1,5.73,2.30,-19.3,31.3
2012-09-28 00:23:00,0.0,1.9009,0.0010,406.37,0.43,535.6,34.0,138.04,31.84,24.65,36.39,0.04,-272.74,-272.74,-44,577,-923,25.8,23.9,3.7,26.1,24.2,4.1,5.73,2.36,-19.3,31.2
2012-09-28 00:24:00,0.0,1.8994,0.0011,406.13,0.42,546.3,36.5,138.04,31.83,24.65,36.39,0.04,-272.74,-272.75,-44,577,-923,25.8,23.9,3.7,26.1,24.2,4.1,5.73,2.24,-19.3,31.3
2012-09-28 00:25:00,0.0,1.8999,0.0011,406.12,0.53,543.1,27.0,138.04,31.83,24.65,36.39,0.04,-272.75,-272.74,-44,576,-923,25.8,23.9,3.6,26.1,24.2,4.1,5.73,2.34,-19.3,31.3
2012-09-28 00:26:00,0.0,1.8997,0.0010,406.31,0.44,544.6,32.8,138.04,31.83,24.65,36.38,0.04,-272.74,-272.74,-44,577,-923,25.8,23.9,3.6,26.2,24.1,4.1,5.73,2.32,-19.3,31.3
2012-09-28 00:27:00,0.0,1.9005,0.0011,406.33,0.42,540.1,35.9,138.04,31.83,24.65,36.39,0.04,-272.74,-272.74,-44,576,-923,25.8,23.8,3.6,26.1,24.1,4.0,5.73,2.24,-19.3,31.3
2012-09-28 00:28:00,0.0,1.9004,0.0013,406.61,0.37,528.7,33.1,138.04,31.83,24.65,36.38,0.04,-272.74,-272.74,-44,576,-923,25.8,23.8,3.6,26.2,24.1,4.1,5.73,2.36,-19.3,31.3
2012-09-28 00:29:00,0.0,1.8984,0.0017,406.68,0.38,545.7,25.8,138.04,31.83,24.65,36.39,0.04,-272.74,-272.74,-44,576,-923,25.8,23.9,3.6,26.1,24.2,4.1,5.73,2.29,-19.3,31.3
2012-09-28 00:30:00,0.0,1.8955,0.0012,406.75,0.43,540.9,34.9,138.04,31.83,24.65,36.39,0.04,-272.74,-272.74,-44,577,-923,25.8,24.0,3.7,26.2,24.2,4.1,5.73,2.26,-19.3,31.3
2012-09-28 00:31:00,0.0,1.8948,0.0012,406.60,0.44,538.9,34.5,138.04,31.83,24.65,36.38,0.04,-272.74,-272.74,-45,576,-923,25.8,24.0,3.7,26.1,24.3,4.2,5.73,2.37,-19.3,31.3
2012-09-28 00:32:00,0.0,1.8961,0.0013,406.61,0.43,543.8,30.8,138.04,31.83,24.65,36.39,0.04,-272.74,-272.74,-44,577,-923,25.8,24.1,3.7,26.1,24.3,4.2,5.73,2.26,-19.3,31.3
2012-09-28 00:33:00,0.0,1.8974,0.0010,406.64,0.39,544.0,35.2,138.04,31.83,24.65,36.38,0.04,-272.74,-272.75,-44,576,-923,25.8,24.0,3.7,26.1,24.3,4.1,5.73,2.29,-19.3,31.3
2012-09-28 00:34:00,0.0,1.8969,0.0009,406.32,0.40,534.0,27.1,138.04,31.83,24.65,36.38,0.04,-272.74,-272.74,-44,576,-923,25.8,24.0,3.7,26.1,24.3,4.1,5.73,2.36,-19.3,31.3
2012-09-28 00:35:00,0.0,1.8984,0.0014,406.45,0.43,546.4,23.4,138.04,31.83,24.65,36.39,0.04,-272.74,-272.74,-44,576,-923,25.8,24.0,3.7,26.1,24.2,4.1,5.73,2.24,-19.3,31.4
2012-09-28 00:36:00,0.0,1.8972,0.0010,406.34,0.46,538.2,33.3,138.04,31.83,24.66,36.39,0.04,-272.75,-272.74,-44,576,-923,25.8,23.9,3.6,26.1,24.2,4.1,5.73,2.32,-19.3,31.3
2012-09-28 00:37:00,0.0,1.8988,0.0011,406.41,0.37,540.6,30.7,138.04,31.83,24.65,36.39,0.04,-272.74,-272.75,-44,576,-923,25.8,23.9,3.6,26.1,24.2,4.1,5.73,2.34,-19.3,31.3
2012-09-28 00:38:00,0.0,1.8990,0.0010,406.30,0.34,539.3,27.4,138.04,31.83,24.65,36.38,0.04,-272.74,-272.74,-44,576,-923,25.8,23.9,3.6,26.1,24.1,4.0,5.73,2.23,-19.3,31.4
2012-09-28 00:39:00,0.0,1.8988,0.0012,406.26,0.39,541.2,30.5,138.04,31.82,24.65,36.38,0.04,-272.74,-272.74,-44,576,-923,25.8,23.8,3.6,26.1,24.1,4.0,5.73,2.34,-19.3,31.3
2012-09-28 00:40:00,0.0,1.8984,0.0012,406.16,0.36,538.6,36.2,138.04,31.82,24.66,36.39,0.04,-272.74,-272.75,-44,577,-923,25.8,23.8,3.6,26.1,24.1,4.0,5.73,2.32,-19.3,31.3
2012-09-28 00:41:00,0.0,1.8976,0.0013,406.19,0.39,537.4,31.9,138.04,31.82,24.65,36.38,0.04,-272.74,-272.74,-44,576,-923,25.8,23.8,3.6,26.1,24.0,4.0,5.73,2.24,-19.3,31.4
2012-09-28 00:42:00,0.0,1.8987,0.0014,406.11,0.46,540.8,29.6,138.04,31.83,24.65,36.38,0.04,-272.74,-272.74,-44,576,-923,25.8,23.7,3.5,26.1,24.0,4.0,5.73,2.37,-19.3,31.4
2012-09-28 00:43:00,0.0,1.8977,0.0012,405.94,0.36,539.6,34.3,138.04,31.83,24.65,36.39,0.30,-270.62,-270.79,-44,576,-923,25.7,23.7,3.5,26.1,24.0,3.9,5.42,2.38,-24.1,31.4
2012-09-28 00:44:00,0.0,1.8972,0.0009,406.03,0.43,539.6,32.1,138.04,31.83,24.65,36.38,0.04,-272.74,-272.74,-44,576,-923,25.7,23.7,3.4,26.1,23.9,3.9,5.73,2.26,-19.3,31.4
2012-09-28 00:45:00,0.0,1.8968,0.0009,405.87,0.42,539.6,31.9,138.04,31.83,24.65,36.38,0.04,-272.74,-272.74,-44,576,-923,25.7,23.6,3.4,26.1,23.8,3.8,5.73,2.37,-19.3,31.4
2012-09-28 00:46:00,0.0,1.8970,0.0011,405.89,0.38,538.8,30.8,138.04,31.82,24.66,36.39,0.04,-272.74,-272.74,-44,576,-923,25.7,23.6,3.3,26.1,23.8,3.8,5.73,2.25,-19.3,31.4
2012-09-28 00:47:00,0.0,1.8970,0.0010,405.91,0.44,542.3,34.6,138.04,31.82,24.66,36.39,0.04,-272.74,-272.74,-44,576,-923,25.7,23.6,3.3,26.1,23.8,3.8,5.73,2.30,-19.3,31.3
2012-09-28 00:48:00,0.0,1.8977,0.0013,405.96,0.39,547.2,35.5,138.04,31.82,24.65,36.38,0.04,-272.74,-272.74,-44,576,-923,25.7,23.5,3.3,26.1,23.8,3.8,5.73,2.36,-19.3,31.3
2012-09-28 00:49:00,0.0,1.8979,0.0009,405.89,0.46,538.4,35.1,138.04,31.82,24.66,36.38,0.04,-272.74,-272.74,-44,576,-923,25.7,23.5,3.3,26.1,23.7,3.8,5.73,2.24,-19.3,31.3
2012-09-28 00:50:00,0.0,1.8969,0.0011,405.79,0.33,543.2,30.0,138.04,31.82,24.65,36.39,0.04,-272.74,-272.74,-44,576,-923,25.7,23.5,3.3,26.1,23.7,3.8,5.73,2.34,-19.3,31.3
2012-09-28 00:51:00,0.0,1.8957,0.0011,405.73,0.45,540.5,35.2,138.04,31.82,24.65,36.39,0.04,-272.74,-272.74,-44,576,-923,25.7,23.4,3.3,26.1,23.7,3.8,5.73,2.32,-19.3,31.3
2012-09-28 00:52:00,0.0,1.8952,0.0010,405.76,0.35,542.6,28.3,138.04,31.82,24.65,36.38,0.04,-272.74,-272.74,-44,576,-923,25.8,23.4,3.3,26.1,23.6,3.7,5.73,2.24,-19.3,31.3
2012-09-28 00:53:00,0.0,1.8953,0.0009,405.70,0.38,545.4,37.3,138.04,31.82,24.65,36.38,0.04,-272.74,-272.75,-44,576,-923,25.8,23.3,3.2,26.1,23.5,3.7,5.73,2.37,-19.3,31.3
2012-09-28 00:54:00,0.0,1.8949,0.0009,405.63,0.41,534.4,30.6,138.04,31.82,24.65,36.39,0.04,-272.74,-272.74,-44,576,-923,25.7,23.2,3.2,26.1,23.5,3.6,5.73,2.29,-19.3,31.3
2012-09-28 00:55:00,0.0,1.8947,0.0011,405.65,0.43,549.0,31.4,138.04,31.82,24.65,36.38,0.04,-272.74,-272.74,-44,576,-923,25.8,23.2,3.1,26.1,23.4,3.6,5.73,2.27,-19.3,31.3
2012-09-28 00:56:00,0.0,1.8950,0.0010,405.68,0.39,541.7,27.1,138.04,31.82,24.65,36.38,0.04,-272.74,-272.74,-44,576,-923,25.8,23.2,3.2,26.1,23.4,3.6,5.73,2.37,-19.3,31.3
2012-09-28 00:57:00,0.0,1.8957,0.0010,405.70,0.45,549.6,33.3,138.04,31.82,24.65,36.39,0.04,-272.74,-272.74,-44,576,-923,25.8,23.2,3.2,26.1,23.4,3.6,5.73,2.25,-19.3,31.3
2012-09-28 00:58:00,0.0,1.8960,0.0011,405.65,0.42,550.5,31.9,138.04,31.82,24.65,36.38,0.04,-272.74,-272.74,-44,576,-923,25.8,23.1,3.1,26.1,23.4,3.6,5.73,2.31,-19.3,31.3
2012-09-28 00:59:00,0.0,1.8959,0.0010,405.66,0.39,541.2,30.3,138.04,31.82,24.65,36.39,0.04,-272.74,-272.74,-44,576,-923,25.8,23.1,3.1,26.1,23.4,3.6,5.73,2.35,-19.3,31.3
2012-09-28 01:00:00,0.0,1.8960,0.0011,405.81,0.43,551.2,30.9,138.04,31.82,24.65,36.38,0.04,-272.74,-272.74,-44,576,-923,25.8,23.1,3.2,26.1,23.4,3.6,5.73,2.24,-19.3,31.3
2012-09-28 01:01:00,0.0,1.8961,0.0009,405.86,0.43,542.1,29.5,138.04,31.82,24.65,36.38,0.04,-272.74,-272.74,-44,576,-923,25.8,23.1,3.1,26.1,23.3,3.6,5.73,2.35,-19.3,31.3
2012-09-28 01:02:00,0.0,1.8954,0.0009,405.77,0.40,538.3,30.5,138.04,31.82,24.66,36.39,0.04,-272.74,-272.75,-44,576,-923,25.8,23.0,3.1,26.1,23.3,3.5,5.73,2.31,-19.3,31.3
2012-09-28 01:03:00,0.0,1.8963,0.0009,405.93,0.42,538.1,31.4,138.04,31.82,24.65,36.39,0.04,-272.74,-272.74,-44,576,-923,25.8,23.0,3.1,26.1,23.2,3.5,5.73,2.25,-19.3,31.3
2012-09-28 01:04:00,0.0,1.8965,0.0012,405.96,0.42,537.3,34.3,138.04,31.82,24.65,36.39,0.04,-272.75,-272.75,-44,576,-923,25.8,23.0,3.1,26.1,23.3,3.5,5.73,2.38,-19.3,31.3
2012-09-28 01:05:00,0.0,1.8971,0.0011,406.03,0.43,535.3,35.6,138.04,31.82,24.65,36.39,0.04,-272.74,-272.74,-44,576,-923,25.7,23.0,3.1,26.1,23.3,3.5,5.73,2.26,-19.3,31.3
2012-09-28 01:06:00,0.0,1.8978,0.0010,406.02,0.40,549.0,37.3,138.04,31.82,24.65,36.39,0.04,-272.74,-272.74,-44,576,-923,25.7,23.1,3.1,26.1,23.4,3.6,5.73,2.29,-19.3,31.3
2012-09-28 01:07:00,0.0,1.8971,0.0009,406.05,0.46,544.9,29.7,138.04,31.82,24.66,36.39,0.04,-272.74,-272.74,-44,576,-923,25.7,23.1,3.1,26.1,23.4,3.6,5.73,2.36,-19.3,31.3
2012-09-28 01:08:00,0.0,1.8976,0.0010,406.23,0.40,535.3,25.7,138.04,31.82,24.65,36.39,0.04,-272.74,-272.74,-44,576,-923,25.7,23.1,3.1,26.1,23.3,3.5,5.73,2.24,-19.3,31.3
2012-09-28 01:09:00,0.0,1.8969,0.0011,406.19,0.38,540.2,36.9,138.04,31.82,24.65,36.39,0.04,-272.74,-272.74,-44,576,-923,25.7,22.9,3.0,26.1,23.2,3.5,5.73,2.34,-19.3,31.2
2012-09-28 01:10:00,0.0,1.8959,0.0009,406.20,0.39,543.7,34.3,138.04,31.81,24.65,36.39,0.04,-272.75,-272.74,-44,576,-923,25.7,22.9,3.0,26.1,23.2,3.4,5.73,2.32,-19.3,31.3
2012-09-28 01:11:00,0.0,1.8963,0.0010,406.18,0.41,526.9,33.1,138.04,31.81,24.65,36.38,0.04,-272.74,-272.74,-44,576,-923,25.7,22.9,3.0,26.1,23.2,3.4,5.73,2.24,-19.3,31.3
2012-09-28 01:12:00,0.0,1.8970,0.0012,406.28,0.39,545.6,33.5,138.04,31.81,24.65,36.39,0.04,-272.74,-272.74,-44,577,-923,25.7,22.9,3.0,26.1,23.2,3.4,5.73,2.36,-19.3,31.3
2012-09-28 01:13:00,0.0,1.8969,0.0011,406.41,0.48,534.9,33.6,138.04,31.81,24.65,36.39,0.04,-272.74,-272.74,-44,576,-923,25.7,23.0,3.0,26.1,23.2,3.4,5.73,2.29,-19.3,31.3
2012-09-28 01:14:00,0.0,1.8970,0.0011,406.42,0.35,529.3,33.7,138.04,31.81,24.65,36.38,0.04,-272.74,-272.74,-45,576,-923,25.7,23.0,3.0,26.1,23.2,3.5,5.73,2.27,-19.3,31.3
2012-09-28 01:15:00,0.0,1.8957,0.0014,406.35,0.38,537.8,38.5,138.04,31.81,24.65,36.39,0.04,-272.74,-272.74,-44,576,-923,25.7,22.8,2.9,26.1,23.1,3.4,5.73,2.37,-19.3,31.3
2012-09-28 01:16:00,0.0,1.8950,0.0011,406.39,0.48,531.2,27.5,138.04,31.81,24.65,36.39,0.04,-272.74,-272.74,-44,576,-923,25.7,22.6,2.8,26.1,22.9,3.2,5.73,2.25,-19.3,31.3
2012-09-28 01:17:00,0.0,1.8943,0.0012,406.43,0.37,536.8,34.0,138.04,31.81,24.66,36.39,0.04,-272.74,-272.75,-45,576,-923,25.7,22.5,2.7,26.1,22.8,3.2,5.73,2.30,-19.3,31.3
2012-09-28 01:18:00,0.0,1.8952,0.0011,406.50,0.42,545.0,31.1,138.04,31.81,24.65,36.39,0.04,-272.74,-272.74,-44,576,-923,25.7,22.6,2.8,26.1,22.8,3.2,5.73,2.36,-19.3,31.3
2012-09-28 01:19:00,0.0,1.8943,0.0012,406.34,0.37,533.7,29.6,138.04,31.81,24.65,36.39,0.04,-272.74,-272.74,-44,576,-923,25.7,22.6,2.7,26.1,22.8,3.2,5.73,2.24,-19.3,31.3
2012-09-28 01:20:00,0.0,1.8937,0.0012,406.26,0.40,536.8,31.5,138.04,31.81,24.65,36.38,0.04,-272.75,-272.74,-44,576,-923,25.7,22.4,2.6,26.1,22.6,3.1,5.73,2.33,-19.4,31.3
2012-09-28 01:21:00,0.0,1.8933,0.0011,406.13,0.42,534.8,30.1,138.04,31.81,24.65,36.39,0.04,-272.75,-272.74,-44,576,-923,25.7,22.3,2.6,26.1,22.6,3.1,5.73,2.33,-19.4,31.3
2012-09-28 01:22:00,0.0,1.8931,0.0011,406.24,0.45,536.7,31.8,138.04,31.81,24.65,36.38,0.04,-272.74,-272.74,-44,576,-923,25.7,22.2,2.5,26.1,22.5,3.0,5.73,2.24,-19.4,31.2
2012-09-28 01:23:00,0.0,1.8932,0.0011,406.08,0.51,533.7,30.3,138.04,31.80,24.65,36.39,0.04,-272.74,-272.74,-44,576,-923,25.7,22.2,2.5,26.1,22.5,3.0,5.73,2.36,-19.4,31.2
2012-09-28 01:24:00,0.0,1.8929,0.0010,406.06,0.37,536.0,27.7,138.04,31.80,24.65,36.38,0.04,-272.74,-272.74,-45,576,-923,25.7,22.2,2.5,26.1,22.5,3.0,5.73,2.29,-19.3,31.2
2012-09-28 01:25:00,0.0,1.8933,0.0008,406.06,0.37,534.1,27.4,138.04,31.80,24.65,36.38,0.04,-272.74,-272.74,-44,576,-923,25.7,22.0,2.4,26.1,22.2,2.9,5.73,2.26,-19.3,31.2
2012-09-28 01:26:00,0.0,1.8930,0.0011,406.04,0.44,536.4,35.9,138.04,31.80,24.65,36.38,0.04,-272.74,-272.74,-44,576,-923,25.7,22.0,2.4,26.1,22.3,2.9,5.73,2.37,-19.3,31.2
2012-09-28 01:27:00,0.0,1.8925,0.0011,405.98,0.39,530.8,35.1,138.04,31.80,24.65,36.38,0.04,-272.75,-272.75,-45,576,-923,25.8,21.9,2.4,26.1,22.2,2.8,5.73,2.26,-19.3,31.2
2012-09-28 01:28:00,0.0,1.8931,0.0010,406.08,0.44,525.3,33.4,138.04,31.80,24.65,36.38,0.30,-270.61,-270.94,-44,576,-923,25.8,21.9,2.4,26.1,22.2,2.8,5.42,2.35,-24.1,31.2
2012-09-28 01:29:00,0.0,1.8927,0.0010,406.09,0.43,532.5,31.2,138.04,31.80,24.65,36.38,0.04,-272.74,-272.74,-44,576,-923,25.8,21.9,2.4,26.1,22.2,2.8,5.73,2.35,-19.3,31.2
2012-09-28 01:30:00,0.0,1.8921,0.0008,405.97,0.41,532.9,29.8,138.04,31.80,24.65,36.38,0.04,-272.75,-272.75,-45,576,-923,25.8,21.8,2.3,26.1,22.1,2.8,5.73,2.24,-19.3,31.2
2012-09-28 01:31:00,0.0,1.8924,0.0011,405.91,0.38,526.7,31.6,138.04,31.80,24.65,36.38,0.04,-272.75,-272.75,-44,576,-923,25.8,21.8,2.3,26.1,22.0,2.8,5.73,2.33,-19.3,31.2
2012-09-28 01:32:00,0.0,1.8925,0.0011,405.95,0.42,532.8,33.2,138.04,31.80,24.65,36.38,0.04,-272.74,-272.74,-44,576,-923,25.8,21.7,2.3,26.1,22.0,2.7,5.73,2.34,-19.3,31.2
2012-09-28 01:33:00,0.0,1.8923,0.0010,405.95,0.44,533.7,35.1,138.04,31.80,24.65,36.39,0.04,-272.75,-272.75,-45,576,-923,25.8,21.7,2.3,26.1,21.9,2.7,5.73,2.24,-19.4,31.2
2012-09-28 01:34:00,0.0,1.8919,0.0009,405.88,0.38,530.8,31.1,138.04,31.80,24.65,36.39,0.04,-272.75,-272.74,-44,576,-923,25.8,21.7,2.3,26.1,22.0,2.7,5.73,2.36,-19.3,31.2
2012-09-28 01:35:00,0.0,1.8923,0.0009,406.01,0.40,532.2,30.4,138.04,31.79,24.65,36.38,0.04,-272.74,-272.74,-44,576,-923,25.8,21.8,2.3,26.1,22.0,2.8,5.73,2.30,-19.3,31.2
2012-09-28 01:36:00,0.0,1.8926,0.0009,406.08,0.45,522.1,34.2,138.04,31.79,24.65,36.38,0.04,-272.74,-272.74,-44,576,-923,25.8,21.8,2.3,26.1,22.0,2.8,5.73,2.26,-19.3,31.2
2012-09-28 01:37:00,0.0,1.8924,0.0011,405.93,0.45,531.1,30.6,138.04,31.79,24.65,36.38,0.04,-272.75,-272.74,-44,576,-923,25.8,21.7,2.3,26.1,22.0,2.7,5.73,2.38,-19.3,31.2
2012-09-28 01:38:00,0.0,1.8924,0.0012,405.96,0.40,531.7,31.9,138.04,31.79,24.65,36.38,0.04,-272.74,-272.75,-44,576,-923,25.8,21.6,2.2,26.1,21.9,2.7,5.73,2.26,-19.4,31.2
2012-09-28 01:39:00,0.0,1.8925,0.0011,405.89,0.37,523.4,32.2,138.04,31.79,24.65,36.38,0.04,-272.74,-272.75,-44,576,-923,25.8,21.8,2.3,26.1,22.0,2.8,5.73,2.29,-19.4,31.2
2012-09-28 01:40:00,0.0,1.8921,0.0010,405.93,0.36,530.7,28.1,138.04,31.79,24.65,36.38,0.04,-272.74,-272.74,-45,576,-923,25.8,21.7,2.3,26.1,22.0,2.8,5.73,2.37,-19.4,31.2
2012-09-28 01:41:00,0.0,1.8923,0.0009,405.84,0.37,541.5,32.4,138.04,31.79,24.65,36.39,0.04,-272.74,-272.74,-44,576,-923,25.8,21.7,2.3,26.1,21.9,2.7,5.73,2.24,-19.4,31.2
2012-09-28 01:42:00,0.0,1.8921,0.0010,405.87,0.47,528.2,31.4,138.04,31.79,24.65,36.38,0.04,-272.74,-272.74,-44,576,-924,25.8,21.7,2.3,26.1,21.9,2.7,5.73,2.34,-19.4,31.2
2012-09-28 01:43:00,0.0,1.8929,0.0009,405.97,0.38,538.0,29.8,138.04,31.79,24.65,36.38,0.04,-272.75,-272.74,-45,576,-923,25.8,21.7,2.3,26.1,22.0,2.7,5.73,2.33,-19.4,31.2
2012-09-28 01:44:00,0.0,1.8928,0.0010,405.99,0.45,523.4,36.9,138.04,31.79,24.65,36.38,0.04,-272.74,-272.74,-44,576,-923,25.8,21.6,2.2,26.1,21.8,2.6,5.73,2.24,-19.4,31.2
2012-09-28 01:45:00,0.0,1.8929,0.0011,406.15,0.37,520.8,30.5,138.04,31.79,24.65,36.39,0.04,-272.74,-272.74,-44,576,-924,25.8,21.6,2.2,26.1,21.8,2.6,5.73,2.36,-19.4,31.2
2012-09-28 01:46:00,0.0,1.8934,0.0010,406.45,0.43,524.9,30.6,138.04,31.79,24.65,36.38,0.04,-272.74,-272.74,-44,576,-923,25.8,21.6,2.2,26.1,21.9,2.7,5.73,2.31,-19.4,31.2
2012-09-28 01:47:00,0.0,1.8937,0.0009,406.77,0.47,524.1,27.1,138.04,31.78,24.65,36.39,0.04,-272.75,-272.74,-44,576,-923,25.8,21.6,2.2,26.1,21.8,2.6,5.73,2.26,-19.4,31.2
2012-09-28 01:48:00,0.0,1.8944,0.0011,407.03,0.47,530.7,37.1,138.04,31.78,24.65,36.39,0.04,-272.75,-272.74,-44,576,-924,25.8,21.6,2.2,26.1,21.8,2.6,5.73,2.37,-19.4,31.2
2012-09-28 01:49:00,0.0,1.8950,0.0011,407.57,0.47,527.1,30.5,138.04,31.78,24.65,36.38,0.04,-272.74,-272.74,-44,576,-923,25.8,21.6,2.2,26.1,21.8,2.6,5.73,2.26,-19.4,31.2
2012-09-28 01:50:00,0.0,1.8952,0.0009,407.74,0.38,521.0,34.4,138.04,31.78,24.65,36.38,0.04,-272.74,-272.74,-45,576,-923,25.8,21.5,2.1,26.1,21.8,2.6,5.73,2.29,-19.4,31.2
2012-09-28 01:51:00,0.0,1.8947,0.0010,407.81,0.44,529.0,33.8,138.04,31.78,24.65,36.39,0.04,-272.74,-272.75,-44,576,-923,25.8,21.4,2.1,26.1,21.6,2.5,5.73,2.37,-19.4,31.2
2012-09-28 01:52:00,0.0,1.8963,0.0011,408.07,0.46,520.9,33.7,138.04,31.77,24.65,36.39,0.04,-272.74,-272.74,-44,576,-923,25.8,21.4,2.0,26.1,21.6,2.5,5.73,2.25,-19.4,31.2
2012-09-28 01:53:00,0.0,1.8968,0.0010,408.45,0.37,525.1,31.9,138.04,31.77,24.65,36.38,0.04,-272.74,-272.75,-45,576,-923,25.8,21.4,2.0,26.1,21.6,2.5,5.73,2.31,-19.4,31.2
2012-09-28 01:54:00,0.0,1.8969,0.0011,408.57,0.43,520.3,37.5,138.04,31.77,24.65,36.39,0.04,-272.74,-272.75,-44,576,-924,25.8,21.4,2.1,26.1,21.7,2.5,5.73,2.35,-19.4,31.2
2012-09-28 01:55:00,0.0,1.8967,0.0009,408.69,0.48,525.9,34.9,138.04,31.77,24.65,36.38,0.04,-272.74,-272.74,-44,576,-923,25.8,21.5,2.1,26.1,21.8,2.6,5.73,2.24,-19.4,31.2
2012-09-28 01:56:00,0.0,1.8970,0.0010,408.78,0.43,529.9,32.6,138.04,31.77,24.65,36.38,0.04,-272.74,-272.74,-44,576,-923,25.8,21.4,2.1,26.1,21.7,2.5,5.73,2.35,-19.4,31.1
2012-09-28 01:57:00,0.0,1.8977,0.0011,408.95,0.48,525.5,34.8,138.04,31.77,24.65,36.39,0.04,-272.74,-272.75,-44,576,-924,25.8,21.5,2.1,26.1,21.7,2.5,5.73,2.31,-19.4,31.1
2012-09-28 01:58:00,0.0,1.8976,0.0012,409.18,0.42,527.9,34.2,138.04,31.77,24.65,36.38,0.04,-272.75,-272.74,-44,576,-923,25.8,21.4,2.1,26.1,21.6,2.5,5.73,2.25,-19.4,31.2
2012-09-28 01:59:00,0.0,1.8976,0.0011,409.21,0.44,526.8,35.4,138.04,31.77,24.65,36.39,0.04,-272.75,-272.74,-44,576,-923,25.8,21.3,2.0,26.1,21.5,2.4,5.73,2.37,-19.4,31.2
2012-09-28 02:00:00,0.0,1.8981,0.0010,409.26,0.36,531.8,28.9,138.04,31.77,24.65,36.38,0.04,-272.75,-272.75,-44,576,-923,25.8,21.3,2.0,26.1,21.5,2.4,5.73,2.29,-19.4,31.2
2012-09-28 02:01:00,0.0,1.8996,0.0010,409.35,0.48,530.0,29.2,138.04,31.77,24.65,36.38,0.04,-272.74,-272.75,-44,576,-923,25.8,21.4,2.1,26.1,21.7,2.5,5.73,2.27,-19.4,31.1
2012-09-28 02:02:00,0.0,1.8987,0.0016,409.57,0.43,524.2,31.1,138.04,31.77,24.65,36.38,0.04,-272.74,-272.74,-44,576,-923,25.8,21.3,2.0,26.1,21.6,2.5,5.73,2.37,-19.4,31.1
2012-09-28 02:03:00,0.0,1.8985,0.0011,409.66,0.46,528.1,31.4,138.04,31.77,24.65,36.38,0.04,-272.74,-272.74,-45,576,-923,25.8,21.2,1.9,26.1,21.4,2.3,5.73,2.26,-19.4,31.1
2012-09-28 02:04:00,0.0,1.8992,0.0010,409.68,0.41,530.6,38.5,138.04,31.76,24.65,36.38,0.04,-272.74,-272.74,-44,576,-923,25.8,21.2,1.9,26.1,21.4,2.3,5.73,2.30,-19.4,31.2
2012-09-28 02:05:00,0.0,1.8981,0.0010,409.63,0.43,525.2,36.1,138.04,31.77,24.65,36.39,0.04,-272.74,-272.74,-44,576,-923,25.8,21.0,1.8,26.1,21.3,2.3,5.73,2.36,-19.4,31.2
2012-09-28 02:06:00,0.0,1.8981,0.0010,409.74,0.42,524.2,35.3,138.04,31.77,24.65,36.38,0.04,-272.74,-272.74,-45,576,-923,25.8,21.0,1.8,26.1,21.3,2.3,5.73,2.24,-19.4,31.1
2012-09-28 02:07:00,0.0,1.8978,0.0010,409.71,0.36,520.4,30.2,138.04,31.77,24.65,36.39,0.04,-272.74,-272.75,-44,576,-923,25.8,21.1,1.8,26.1,21.3,2.3,5.73,2.34,-19.4,31.2
2012-09-28 02:08:00,0.0,1.8986,0.0014,409.84,0.42,518.8,31.8,138.04,31.77,24.65,36.39,0.04,-272.74,-272.74,-44,576,-923,25.8,21.1,1.9,26.1,21.4,2.3,5.73,2.33,-19.4,31.2
2012-09-28 02:09:00,0.0,1.8996,0.0010,410.02,0.42,526.1,35.8,138.04,31.77,24.65,36.38,0.04,-272.74,-272.74,-45,576,-923,25.8,21.1,1.9,26.1,21.4,2.3,5.73,2.24,-19.4,31.2
2012-09-28 02:10:00,0.0,1.8983,0.0010,410.21,0.42,521.5,36.1,138.04,31.76,24.65,36.39,0.04,-272.74,-272.75,-45,576,-923,25.8,21.1,1.9,26.1,21.4,2.3,5.73,2.36,-19.4,31.1
2012-09-28 02:11:00,0.0,1.8986,0.0010,410.16,0.41,520.2,31.4,138.04,31.76,24.65,36.38,0.04,-272.74,-272.74,-44,576,-923,25.8,21.1,1.8,26.1,21.3,2.3,5.73,2.30,-19.4,31.1
2012-09-28 02:12:00,0.0,1.8984,0.0012,410.25,0.45,525.3,34.3,138.04,31.76,24.65,36.38,0.04,-272.74,-272.74,-45,576,-923,25.8,21.0,1.8,26.1,21.3,2.3,5.73,2.26,-19.4,31.1
2012-09-28 02:13:00,0.0,1.8978,0.0010,410.33,0.40,522.4,31.6,138.04,31.76,24.65,36.38,0.04,-272.74,-272.74,-45,576,-923,25.8,21.0,1.8,26.1,21.3,2.3,5.73,2.37,-19.5,31.1
2012-09-28 02:14:00,0.0,1.8976,0.0011,410.32,0.49,524.5,27.2,138.04,31.76,24.65,36.38,0.04,-272.75,-272.74,-44,576,-923,25.8,20.9,1.8,26.1,21.2,2.2,5.73,2.26,-19.5,31.1
2012-09-28 02:15:00,0.0,1.8980,0.0010,410.57,0.41,520.4,31.3,138.04,31.76,24.65,36.37,0.04,-272.74,-272.74,-45,576,-923,25.8,21.0,1.8,26.1,21.3,2.3,5.73,2.29,-19.4,31.1
2012-09-28 02:16:00,0.0,1.8986,0.0011,410.47,0.45,524.7,34.4,138.04,31.75,24.65,36.38,0.04,-272.74,-272.74,-45,576,-923,25.8,20.8,1.7,26.1,21.1,2.2,5.73,2.37,-19.5,31.1
2012-09-28 02:17:00,0.0,1.8984,0.0009,410.64,0.52,523.9,31.6,138.04,31.75,24.65,36.38,0.04,-272.74,-272.74,-45,576,-923,25.8,21.0,1.8,26.1,21.2,2.3,5.73,2.24,-19.5,31.0
2012-09-28 02:18:00,0.0,1.8986,0.0012,410.82,0.47,513.6,28.6,138.04,31.75,24.65,36.38,0.04,-272.74,-272.74,-44,576,-923,25.8,20.7,1.7,26.1,21.0,2.1,5.73,2.33,-19.5,31.0